User: anonymous   Login
Location: Maiden_LMO
(35.5760°N, 81.2120°W)
Time: 19:49:18
(UTC-04:00)
Language:

Cosmos 2278 Rocket - Orbit

View from above orbital plane
View from above orbital plane
View from above satellite
View from above satellite

Ground track
Ground track

The orbit data is extracted from the following two-line orbital elements,

1 23088U 94023B   15243.22287501 -.00000294  00000-0 -12822-3 0  9996
2 23088 070.9985 218.8071 0003689 334.2639 025.8299 14.14625753102774
Epoch (UTC): 31 August 2015 05:20:56
Eccentricity: 0.0003689
inclination: 70.9985°
perigee height: 841 km
apogee height: 846 km
right ascension of ascending node: 218.8071°
argument of perigee: 334.2639°
revolutions per day: 14.14625753
mean anomaly at epoch: 25.8299°
orbit number at epoch: 10277

The dashed part of the orbit path shows where the satellite is in the earth's shadow,  

DLR